Showing default

GLOBALSTAR M028, 25875

Orbit data source: Space-Track

GLOBALSTAR M028, 25875 is a payload satellite owned by Globalstar (US) in LEO that was launched on Sun, 25 Jul 1999 UTC via a DELTA 7420-10C launch vehicle from the Air Force Eastern Test Range (AFETR). Payload-class satellites include a variety of spacecraft equipped with specific instruments for various scientific and technological missions. These include communications satellites like Starlink; space stations such as the ISS; scientific satellites like the Hubble; Earth observation satellites from companies like Planet Labs, Umbra, and HawkEye 360; GPS; miniature CubeSats for education and research; and military/defense satellites.

Loading next visibility...
Identifier
25875, 1999-041D
Orbit
LEO
Country
Flag of USUS / GLOB
Related business
Manufacturer
SS/Loral
Mission
Non-operational Commercial Communications
Bus & Motor
LS-400, LS-400 AOCS
Mass
450 kg wet, 380 kg dry
Launch date (UTC)
1999-07-25 (27 years ago)
Launch vehicle
DELTA 7420-10C
Launch site
Air Force Eastern Test Range (AFETR)
Object type
Payload
Rocket body
Debris
Shape & HBR
Box + 2 Pan, 6.0 m
Radar Cross Section
5.587 m², Large (>1 m²)

Expand to show TLE details & history
Last TLE update: 14 hours ago

TLE from 14 hours ago
0 GLOBALSTAR M028
1 25875U 99041D   26121.96852192 -.00000090  00000-0  71628-4 0  9992
2 25875  51.9638 322.5008 0063993  44.3892 316.2075 12.50599379230066
Epoch: 2026-05-01T23:14Z
TLE epoch observation values (Epoch: 2026-05-01T23:14:40.293Z)
Latitude
0.00001°
Longitude
113.93976°
Altitude
1,426.602 km
Speed
7.165 km/s
True Right ascension
21h 30m 00s
True Declination
0° 00' 00"
Sunlit
Object was in daylight at epoch
Visualization orbit readout
Latitude
Unknown
Longitude
Unknown
Altitude
Unknown
Speed
Unknown
Apparent Right ascension
Unknown
Apparent Declination
Unknown
Sunlit
N/A
Visualization observer readout
Local Sidereal Time
20:47:44
Azimuth
Unknown
Elevation
Unknown
Doppler factor
Unknown
Orbital elements
Apogee altitude
1,512.558 km
Perigee altitude
1,412.21 km
Semi-major axis
7,840.521 km
Eccentricity
0.0064
Inclination
51.9638°
RAAN
322.5008°
Arg. of periapsis
44.3892°
True anomaly
315.69708°
Mean anomaly
316.2075°
Eccentric anomaly
315.95258°
Mean motion
3.12626 °/min
Orbital period
115.15 mins
BSTAR
0.000071628
Loading maneuver chart data...
Computing Atmospheric mass density...
Loading historical data...
Loading historical data...
Loading historical data...
Loading historical data...
Loading historical data...
Loading historical data...
Loading historical data...
Other satellites on launch #41 in the year 1999 (1999-07-25 UTC)

Documentation

Showing up to 5 results
|